(234535) = 2001 UB198

Discovered at Anderson Mesa on 2001-10-19 by LONEOS.

Orbit

Orbit type: Main Belt

Note: WebGL enabled browser required.

epoch2024-03-31.0
epoch JD2460400.5
perihelion date2022-11-01.02957
perihelion JD2459884.52957
argument of perihelion (°)312.94924
ascending node (°)71.99882
inclination (°)7.20995
eccentricity0.1171655
perihelion distance (AU)2.0358807
Tisserand w.r.t. Jupiter3.6
ΔV w.r.t. Earth (km/sec)9.1
semimajor axis (AU)2.3060729
mean anomaly (°)145.21755
mean daily motion (°/day)0.28144550
aphelion distance (AU)2.576
period (years)3.5
P-vector [x]0.90118624
P-vector [y]0.42517330
P-vector [z]0.08420824
Q-vector [x]-0.41667263
Q-vector [y]0.79632961
Q-vector [z]0.43845532
absolute magnitude17.1
phase slope0.15
uncertainty0
referenceMPEC 2024-F14
observations used555
oppositions15
arc length (days)8217
first opposition used2001
last opposition used2024
residual rms (arc-secs)0.72
perturbers coarse indicatorM-v
perturbers precise indicator003Ek
first observation date used2001-09-17.0
last observation date used2024-03-17.0
computer nameMPCLINUX
JD of orbit computation2456847.629446
perihelion JD uncertainty (days)6.1723E-05
argument of perihelion uncertainty (°)3.0962E-05
ascending node uncertainty (°)2.7806E-05
inclination uncertainty (°)3.6239E-06
eccentricity uncertainty 3.9989E-08
perihelion distance uncertainty (AU)9.0378E-08
Minimum Orbit Intersection Distances (in AU)
for orbit epoch: 2460400.5, reference: E2024-GF4
Mercury1.69427
Venus1.31232
Earth1.04854
Mars0.57926
Jupiter2.849
Saturn6.81007
Uranus15.9334
Neptune27.7819

Observations

568 total observations over interval: 2001 09 17.33686 – 2024 03 17.386804
These data are available for download (format description).

Date (UT) J2000 RA J2000 Dec Magn Location Ref
2001 09 17.33686 01 54 43.05 -00 29 26.3 19.4 R 699 – Lowell Observatory-LONEOS MPS 58942
2001 09 17.36436 01 54 42.35 -00 29 33.3   699 – Lowell Observatory-LONEOS MPS 58942
2001 09 17.39192 01 54 41.57 -00 29 39.3   699 – Lowell Observatory-LONEOS MPS 58942
2001 09 17.41952 01 54 40.78 -00 29 45.1   699 – Lowell Observatory-LONEOS MPS 58942
2001 09 18.397560 01 54 14.720 -00 33 16.83 19.75 V 645 – Apache Point-Sloan Digital Sky Survey MPS 79972
2001 09 18.401032 01 54 14.615 -00 33 17.61 20.56   645 – Apache Point-Sloan Digital Sky Survey MPS 79972
2001 09 25.33612 01 50 17.54 -00 59 21.3 19.3   704 – Lincoln Laboratory ETS, New Mexico MPS 134774
2001 09 25.35195 01 50 16.83 -00 59 25.2 19.4   704 – Lincoln Laboratory ETS, New Mexico MPS 134774
2001 09 25.36695 01 50 16.19 -00 59 28.9 19.6   704 – Lincoln Laboratory ETS, New Mexico MPS 134774
2001 09 25.38172 01 50 15.57 -00 59 32.2 19.8   704 – Lincoln Laboratory ETS, New Mexico MPS 134774
2001 09 25.39727 01 50 14.82 -00 59 35.3 20.0   704 – Lincoln Laboratory ETS, New Mexico MPS 134774
2001 10 10.36222 01 37 31.12 -01 52 22.7 19.9   644 – Palomar Mountain/NEAT MPS 58942
2001 10 10.38343 01 37 29.80 -01 52 26.3 20.2   644 – Palomar Mountain/NEAT MPS 58942
2001 10 10.40463 01 37 28.52 -01 52 30.4 20.2   644 – Palomar Mountain/NEAT MPS 58942
2001 10 19.28008 01 28 33.38 -02 12 36.7 18.8 R 699 – Lowell Observatory-LONEOS MPS 57224
2001 10 19.30346 01 28 31.87 -02 12 38.5   699 – Lowell Observatory-LONEOS MPS 57224
2001 10 19.32689 01 28 30.42 -02 12 40.2   699 – Lowell Observatory-LONEOS MPS 57224
2001 10 19.35034 01 28 28.89 -02 12 43.4   699 – Lowell Observatory-LONEOS MPS 57224
2001 10 20.24710 01 27 35.13 -02 13 58.5 19.2   704 – Lincoln Laboratory ETS, New Mexico MPS 57224
2001 10 20.26346 01 27 34.03 -02 14 01.0 19.0   704 – Lincoln Laboratory ETS, New Mexico MPS 57224
2001 10 20.27990 01 27 32.95 -02 14 01.1 19.3   704 – Lincoln Laboratory ETS, New Mexico MPS 57224
2001 10 24.32908 01 23 33.55 -02 17 40.4 20.0   644 – Palomar Mountain/NEAT MPS 58942
2001 10 24.35020 01 23 32.29 -02 17 41.5 20.2   644 – Palomar Mountain/NEAT MPS 58942
2001 10 24.37123 01 23 30.99 -02 17 42.0 20.0   644 – Palomar Mountain/NEAT MPS 58942
2003 03 23.185980 11 51 36.892 +13 21 32.19 20.53 V 645 – Apache Point-Sloan Digital Sky Survey MPS 206818
2003 03 23.189452 11 51 36.682 +13 21 33.16 21.36   645 – Apache Point-Sloan Digital Sky Survey MPS 206818
2006 01 07.19721 07 41 32.56 +29 18 50.9 19.8 V 691 – Steward Observatory, Kitt Peak-Spacewatch MPS 206818
2006 01 07.21469 07 41 31.30 +29 18 57.5 19.9 V 691 – Steward Observatory, Kitt Peak-Spacewatch MPS 206818
2006 01 07.23217 07 41 30.03 +29 19 03.9 19.8 V 691 – Steward Observatory, Kitt Peak-Spacewatch MPS 206818
2007 04 14.40992 15 31 12.40 -13 18 43.0 20.8 V 691 – Steward Observatory, Kitt Peak-Spacewatch MPS 206818
2007 04 14.42761 15 31 11.63 -13 18 41.2 21.1 V 691 – Steward Observatory, Kitt Peak-Spacewatch MPS 206818
2007 04 14.44583 15 31 10.87 -13 18 39.9 20.8 V 691 – Steward Observatory, Kitt Peak-Spacewatch MPS 206818
2007 04 18.38045 15 28 17.89 -13 12 13.1 20.9 V 691 – Steward Observatory, Kitt Peak-Spacewatch MPS 206818
2007 04 18.39811 15 28 17.03 -13 12 11.4 21.3 V 691 – Steward Observatory, Kitt Peak-Spacewatch MPS 206818
2007 04 18.41579 15 28 16.18 -13 12 09.6 21.3 V 691 – Steward Observatory, Kitt Peak-Spacewatch MPS 206818
2007 04 22.38486 15 24 59.53 -13 05 08.0 21.0 V 691 – Steward Observatory, Kitt Peak-Spacewatch MPS 207994
2007 04 22.40400 15 24 58.48 -13 05 05.7 20.8 V 691 – Steward Observatory, Kitt Peak-Spacewatch MPS 207994
2007 04 22.42365 15 24 57.43 -13 05 03.8 20.8 V 691 – Steward Observatory, Kitt Peak-Spacewatch MPS 207994
2007 04 26.36003 15 21 23.64 -12 57 44.0 21.0 V 691 – Steward Observatory, Kitt Peak-Spacewatch MPS 207994
2007 04 26.37770 15 21 22.59 -12 57 42.0 20.9 V 691 – Steward Observatory, Kitt Peak-Spacewatch MPS 207994
2007 04 26.39537 15 21 21.56 -12 57 40.3 20.8 V 691 – Steward Observatory, Kitt Peak-Spacewatch MPS 207994
2007 05 12.32777 15 05 01.28 -12 28 09.8 20.1 V G96 – Mt. Lemmon Survey MPS 208820
2007 05 12.33509 15 05 00.81 -12 28 08.9 20.4 V G96 – Mt. Lemmon Survey MPS 208820
2007 05 12.34240 15 05 00.31 -12 28 08.2 20.3 V G96 – Mt. Lemmon Survey MPS 208820
2007 05 12.34970 15 04 59.84 -12 28 07.5 20.3 V G96 – Mt. Lemmon Survey MPS 208820
2008 09 21.44571 01 48 00.54 -01 19 25.5 19.3 V 703 – Catalina Sky Survey MPS 256556
2008 09 21.45208 01 48 00.25 -01 19 26.0 19.5 V 703 – Catalina Sky Survey MPS 256556
2008 09 21.45851 01 48 00.00 -01 19 27.3 18.6 V 703 – Catalina Sky Survey MPS 256556
2008 09 21.46493 01 47 59.82 -01 19 28.0 20.0 V 703 – Catalina Sky Survey MPS 256556
2008 09 22.30295 01 47 29.72 -01 22 46.2 19.8   704 – Lincoln Laboratory ETS, New Mexico MPS 256556
2008 09 22.31491 01 47 29.21 -01 22 47.1 19.7   704 – Lincoln Laboratory ETS, New Mexico MPS 256556
2008 09 22.32687 01 47 28.69 -01 22 51.1 20.0   704 – Lincoln Laboratory ETS, New Mexico MPS 256556
2008 09 22.33883 01 47 28.23 -01 22 53.2 19.8   704 – Lincoln Laboratory ETS, New Mexico MPS 256556
2008 09 29.34686 01 42 25.84 -01 50 32.3 18.9 V 703 – Catalina Sky Survey MPS 257782
2008 09 29.35777 01 42 25.30 -01 50 35.7 19.4 V 703 – Catalina Sky Survey MPS 257782
2008 09 29.36868 01 42 24.69 -01 50 37.5 19.4 V 703 – Catalina Sky Survey MPS 257782
2008 09 29.37954 01 42 24.12 -01 50 40.4 19.4 V 703 – Catalina Sky Survey MPS 257782
2008 10 08.35142 01 34 19.81 -02 22 34.2 19.3 V 703 – Catalina Sky Survey MPS 259121
2008 10 08.36115 01 34 19.23 -02 22 36.8 19.1 V 703 – Catalina Sky Survey MPS 259121
2008 10 08.37080 01 34 18.69 -02 22 37.5 19.4 V 703 – Catalina Sky Survey MPS 259121
2008 10 08.38061 01 34 18.04 -02 22 39.4 19.1 V 703 – Catalina Sky Survey MPS 259121
2008 10 21.28639 01 21 26.42 -02 50 03.1 19.1 V G96 – Mt. Lemmon Survey MPS 260507
2008 10 21.29066 01 21 26.17 -02 50 03.4 19.3 V G96 – Mt. Lemmon Survey MPS 260507
2008 10 21.29516 01 21 25.92 -02 50 03.6 19.3 V G96 – Mt. Lemmon Survey MPS 260507
2008 10 21.29944 01 21 25.63 -02 50 03.9 19.3 V G96 – Mt. Lemmon Survey MPS 260507
2008 10 23.24837 01 19 32.17 -02 51 31.2 18.6   704 – Lincoln Laboratory ETS, New Mexico MPS 260507
2008 10 23.25975 01 19 31.50 -02 51 31.2 18.7   704 – Lincoln Laboratory ETS, New Mexico MPS 260507
2008 10 23.27112 01 19 30.75 -02 51 31.7 19.2   704 – Lincoln Laboratory ETS, New Mexico MPS 260507
2008 10 23.28251 01 19 30.01 -02 51 31.7 19.5   704 – Lincoln Laboratory ETS, New Mexico MPS 260507
2008 10 23.29390 01 19 29.43 -02 51 32.4 18.7   704 – Lincoln Laboratory ETS, New Mexico MPS 260507
2008 10 29.19762 01 14 05.54 -02 50 43.4 18.9   704 – Lincoln Laboratory ETS, New Mexico MPS 261315
2008 10 29.20918 01 14 04.96 -02 50 43.4 19.5   704 – Lincoln Laboratory ETS, New Mexico MPS 261315
2008 10 29.22073 01 14 04.25 -02 50 43.0 19.5   704 – Lincoln Laboratory ETS, New Mexico MPS 261315
2008 10 29.23234 01 14 03.62 -02 50 43.0 19.2   704 – Lincoln Laboratory ETS, New Mexico MPS 261315
2008 10 29.24392 01 14 02.98 -02 50 41.3 19.3   704 – Lincoln Laboratory ETS, New Mexico MPS 261315
2009 01 02.16270 01 20 53.16 +04 41 25.9 20.7 V G96 – Mt. Lemmon Survey MPS 270027
2009 01 02.17053 01 20 53.66 +04 41 31.4 20.4 V G96 – Mt. Lemmon Survey MPS 270027
2009 01 02.17841 01 20 54.13 +04 41 36.1 20.8 V G96 – Mt. Lemmon Survey MPS 270027
2009 01 02.18640 01 20 54.60 +04 41 41.0 20.3 V G96 – Mt. Lemmon Survey MPS 270027
2010 02 15.590324 12 18 53.757 +09 59 35.90 21.46 g F51 – Pan-STARRS 1, Haleakala MPS 316664
2010 02 15.599446 12 18 53.456 +09 59 39.25 21.41 g F51 – Pan-STARRS 1, Haleakala MPS 316664
2010 02 20.557392 12 16 01.928 +10 31 37.56 20.58 r F51 – Pan-STARRS 1, Haleakala MPS 316664
2010 02 20.568105 12 16 01.494 +10 31 41.80 20.88 r F51 – Pan-STARRS 1, Haleakala MPS 316664
2010 02 24.593665 12 13 14.578 +10 58 43.91 20.72 i F51 – Pan-STARRS 1, Haleakala MPS 316664
2010 02 24.602128 12 13 14.189 +10 58 47.41 20.68 i F51 – Pan-STARRS 1, Haleakala MPS 316664
2010 03 20.34758 11 51 24.40 +13 28 08.1 20.4 V G96 – Mt. Lemmon Survey MPS 319237
2010 03 20.35349 11 51 24.01 +13 28 09.9 20.5 V G96 – Mt. Lemmon Survey MPS 319237
